• Join FlightAware (Why Join?)
  • Login
  • US Flag GB Flag 
07:25 EDT


 

Airport Tracker/Info


-or-


 

Live Flight TrackerFlight Track Log ✈ N682RW ✈ 11-Sep-2013 ✈ KMDW - KDTW

Flight Track Log - Related Links

Times and Time Zones

All times are in EDT time to prevent confusion due to time zone crossing. See the N682RW flight status page for this flight to view local times or setup timezone preferences in your user account.

Time Position Orientation Groundspeed Altitude Reporting Facility
EDT Latitude Longitude Course Direction KTS MPH feet Rate Location/Type
01:38 41.8000 -87.7000 85° East 197 227 2,200  Level Chicago TRACON
01:39 41.8022 -87.6661 85° East 216 249 2,900 1,740 Climbing Chicago Center
01:40 41.7986 -87.5656 93° East 262 302 5,100 2,280 Climbing Chicago Center
01:41 41.7931 -87.4575 94° East 287 330 7,500 2,640 Climbing Chicago Center
01:42 41.7889 -87.3158 92° East 314 361 10,400 2,700 Climbing Chicago Center
01:43 41.7997 -87.1922 83° East 329 379 13,000 2,100 Climbing Chicago Center
01:44 41.8533 -87.1621 85° East  Level Estimated
01:44 41.8122 -87.0617 83° East 350 403 14,600  Level Chicago Center
01:45 41.8258 -86.9186 83° East 382 440 16,900 1,740 Climbing Chicago Center
01:46 41.8392 -86.7644 83° East 413 475 18,200 1,020 Climbing Chicago Center
01:47 41.8364 -86.6183 91° East 439 505 19,000 360 Climbing Chicago Center
01:48 41.8367 -86.4542 90° East 440 506 19,000  Level Chicago Center
01:49 41.8378 -86.2900 89° East 441 507 19,000  Level Chicago Center
01:50 41.8378 -86.1256 90° East 440 506 19,000  Level Chicago Center
01:51 41.8386 -85.9628 90° East 438 504 19,000  Level Chicago Center
01:52 41.8383 -85.7972 90° East 441 507 19,000  Level Chicago Center
01:53 41.8386 -85.6325 90° East 440 506 19,000  Level Chicago Center
01:54 41.8383 -85.4661 90° East 441 507 19,000  Level Chicago Center
01:55 41.8383 -85.2992 90° East 441 507 19,000  Level Chicago Center
01:56 41.8378 -85.1339 90° East 439 505 19,000  Level Chicago Center
01:57 41.8364 -84.9675 91° East 445 512 19,000  Level Chicago Center
01:58 41.8531 -84.8081 82° East 441 507 19,000 -120 Level Chicago Center
01:59 41.9081 -84.6619 63° Northeast 440 506 18,800 -1,140 Descending Chicago Center
02:00 41.9564 -84.5133 66° East 436 502 16,800 -2,100 Descending Chicago Center
02:01 42.0011 -84.3642 68° East 421 484 14,600 -2,340 Descending Chicago Center
02:02 42.0392 -84.2431 67° East 398 458 12,500 -2,520 Descending Cleveland Center
02:02 42.0533 -84.1936 69° East 403 464 11,600 -1,500 Descending Cleveland Center
02:03 42.0808 -84.1114 66° East 387 445 11,000 -600 Descending Cleveland Center
02:03 42.0928 -84.0644 71° East 387 445 11,000 -600 Level Cleveland Center
02:04 42.1242 -83.9906 60° Northeast 361 415 10,400 -1,020 Descending Cleveland Center
02:04 42.1358 -83.9433 72° East 365 420 10,000 -1,020 Descending Cleveland Center
02:05 42.1628 -83.8747 62° Northeast 339 390 9,400 -1,140 Descending Cleveland Center
02:05 42.1744 -83.8333 69° East 339 390 8,900 -1,500 Descending Cleveland Center
02:06 42.2014 -83.7619 63° Northeast 307 353 7,900 -1,500 Descending Cleveland Center
02:06 42.2108 -83.7258 71° East 317 365 7,400 -1,740 Descending Cleveland Center
02:07 42.2422 -83.6489 61° Northeast 303 349 6,000 -1,800 Descending Cleveland Center
02:07 42.2447 -83.6267 81° East 305 351 5,600 -1,920 Descending Cleveland Center
02:08 42.2739 -83.5550 61° Northeast 270 311 4,100 -1,740 Descending Cleveland Center
02:08 42.2786 -83.5328 74° East 287 330 3,900 -900 Descending Cleveland Center
02:09 42.3031 -83.4694 62° Northeast 238 274 3,200 -840 Descending Cleveland Center
02:09 42.3033 -83.4581 88° East 265 305 3,100 -240 Descending Cleveland Center
02:10 42.3258 -83.3972 63° Northeast 221 254 3,000 -120 Descending Cleveland Center
02:10 42.3261 -83.3806 89° East 238 274 3,000 -1,140 Level Cleveland Center
02:11 42.2981 -83.3344 129° Southeast 207 238 1,900 -1,020 Descending Cleveland Center
02:12 42.2581 -83.3467 193° South 135 155 1,300 -600 Descending Cleveland Center
02:14 42.2124 -83.3534 188° South  Level Estimated